Time,TemperatureF,DewpointF,PressureIn,WindDirection,WindDirectionDegrees,WindSpeedMPH,WindSpeedGustMPH,Humidity,HourlyPrecipIn,Conditions,Clouds,dailyrainin,SolarRadiationWatts/m^2,SoftwareType,DateUTC
2013-05-19 00:01:00,56.5,34.9,29.97,NNW,344,5.0,8.0,44,0.00,,SCT070,0.00,0.00,VWS V14.01,2013-05-19 07:01:00,
2013-05-19 00:06:00,56.4,34.8,29.98,North,350,5.0,7.0,44,0.00,,SCT070,0.00,0.00,VWS V14.01,2013-05-19 07:06:00,
2013-05-19 00:11:00,56.3,35.2,29.98,NNW,345,2.0,8.0,45,0.00,,SCT070,0.00,0.00,VWS V14.01,2013-05-19 07:11:00,
2013-05-19 00:16:00,56.3,35.2,29.98,NNE,24,3.0,7.0,45,0.00,,SCT070,0.00,0.00,VWS V14.01,2013-05-19 07:16:00,
2013-05-19 00:21:00,56.8,35.1,29.98,North,9,2.0,6.0,44,0.00,,SCT070,0.00,0.00,VWS V14.01,2013-05-19 07:21:00,
2013-05-19 00:26:00,56.8,35.1,29.99,NE,40,6.0,9.0,44,0.00,,SCT070,0.00,0.00,VWS V14.01,2013-05-19 07:26:00,
2013-05-19 00:31:00,56.9,35.2,29.99,NNW,340,9.0,10.0,44,0.00,,SCT070,0.00,0.00,VWS V14.01,2013-05-19 07:31:00,
2013-05-19 00:36:00,56.8,35.1,29.99,NNW,336,2.0,12.0,44,0.00,,SCT070,0.00,0.00,VWS V14.01,2013-05-19 07:36:00,
2013-05-19 00:41:00,56.6,35.0,29.99,NNW,336,5.0,10.0,44,0.00,,SCT070,0.00,0.00,VWS V14.01,2013-05-19 07:41:00,
2013-05-19 00:46:00,56.4,34.8,29.99,NNW,334,5.0,9.0,44,0.00,,SCT070,0.00,0.00,VWS V14.01,2013-05-19 07:46:00,
2013-05-19 00:51:00,56.2,34.6,29.99,NNW,339,6.0,7.0,44,0.00,,SCT070,0.00,0.00,VWS V14.01,2013-05-19 07:51:00,
2013-05-19 00:56:00,55.9,34.3,29.99,NW,308,5.0,8.0,44,0.00,,SCT070,0.00,0.00,VWS V14.01,2013-05-19 07:56:00,
2013-05-19 01:01:00,55.8,34.8,29.99,NNW,348,4.0,7.0,45,0.00,,BKN070,0.00,0.00,VWS V14.01,2013-05-19 08:01:00,
2013-05-19 01:06:00,55.5,34.5,29.99,NNW,342,4.0,9.0,45,0.00,,BKN070,0.00,0.00,VWS V14.01,2013-05-19 08:06:00,
2013-05-19 01:11:00,55.1,34.7,30.00,NNW,344,3.0,6.0,46,0.00,,BKN070,0.00,0.00,VWS V14.01,2013-05-19 08:11:00,
2013-05-19 01:16:00,54.9,34.5,30.00,NNW,336,5.0,8.0,46,0.00,,BKN070,0.00,0.00,VWS V14.01,2013-05-19 08:16:00,
2013-05-19 01:21:00,55.1,35.2,30.00,North,360,6.0,9.0,47,0.00,,BKN070,0.00,0.00,VWS V14.01,2013-05-19 08:21:00,
2013-05-19 01:26:00,55.2,35.3,30.00,NNW,340,7.0,10.0,47,0.00,,BKN070,0.00,0.00,VWS V14.01,2013-05-19 08:26:00,
2013-05-19 01:31:00,55.4,35.5,30.00,NW,325,6.0,9.0,47,0.00,,BKN070,0.00,0.00,VWS V14.01,2013-05-19 08:31:00,
2013-05-19 01:36:00,55.6,35.2,30.00,North,360,10.0,11.0,46,0.00,,BKN070,0.00,0.00,VWS V14.01,2013-05-19 08:36:00,
2013-05-19 01:41:00,55.9,35.4,30.01,NNE,19,6.0,9.0,46,0.00,,BKN070,0.00,0.00,VWS V14.01,2013-05-19 08:41:00,
2013-05-19 01:46:00,55.9,35.4,30.01,North,351,5.0,8.0,46,0.00,,BKN070,0.00,0.00,VWS V14.01,2013-05-19 08:46:00,
2013-05-19 01:51:00,55.9,35.4,30.01,NNE,22,5.0,7.0,46,0.00,,BKN070,0.00,0.00,VWS V14.01,2013-05-19 08:51:00,
2013-05-19 01:56:00,55.8,35.3,30.01,NNE,19,5.0,8.0,46,0.00,,BKN070,0.00,0.00,VWS V14.01,2013-05-19 08:56:00,
2013-05-19 02:01:00,55.9,36.0,30.01,NNW,332,11.0,11.0,47,0.00,,OVC090,0.00,0.00,VWS V14.01,2013-05-19 09:01:00,
2013-05-19 02:06:00,55.8,35.9,30.01,NE,39,6.0,9.0,47,0.00,,OVC090,0.00,0.00,VWS V14.01,2013-05-19 09:06:00,
2013-05-19 02:11:00,55.7,36.3,30.01,North,5,7.0,8.0,48,0.00,,OVC090,0.00,0.00,VWS V14.01,2013-05-19 09:11:00,
2013-05-19 02:16:00,55.5,36.7,30.01,NE,34,4.0,8.0,49,0.00,,OVC090,0.00,0.00,VWS V14.01,2013-05-19 09:16:00,
2013-05-19 02:21:00,55.0,36.7,30.01,NE,44,4.0,6.0,50,0.00,,OVC090,0.00,0.00,VWS V14.01,2013-05-19 09:21:00,
2013-05-19 02:26:00,54.6,37.3,30.01,NE,34,3.0,5.0,52,0.00,,OVC090,0.00,0.00,VWS V14.01,2013-05-19 09:26:00,
2013-05-19 02:31:00,54.2,37.9,30.01,NE,38,5.0,6.0,54,0.00,,OVC090,0.00,0.00,VWS V14.01,2013-05-19 09:31:00,
2013-05-19 02:36:00,53.8,38.0,30.01,NNE,26,3.0,5.0,55,0.00,,OVC090,0.00,0.00,VWS V14.01,2013-05-19 09:36:00,
2013-05-19 02:41:00,53.4,38.1,30.01,NNE,32,3.0,5.0,56,0.00,,OVC090,0.00,0.00,VWS V14.01,2013-05-19 09:41:00,
2013-05-19 02:46:00,53.1,38.3,30.01,NNE,20,1.0,3.0,57,0.00,,OVC090,0.00,0.00,VWS V14.01,2013-05-19 09:46:00,
2013-05-19 02:51:00,52.7,38.3,30.01,NE,40,1.0,2.0,58,0.00,,OVC090,0.00,0.00,VWS V14.01,2013-05-19 09:51:00,
2013-05-19 02:56:00,52.3,38.0,30.01,NE,40,0.0,1.0,58,0.00,,OVC090,0.00,0.00,VWS V14.01,2013-05-19 09:56:00,
2013-05-19 03:01:00,52.0,38.1,30.02,NE,48,1.0,2.0,59,0.00,,BKN100,0.00,0.00,VWS V14.01,2013-05-19 10:01:00,
2013-05-19 03:06:00,51.7,37.8,30.02,NE,48,3.0,3.0,59,0.00,,BKN100,0.00,0.00,VWS V14.01,2013-05-19 10:06:00,
2013-05-19 03:11:00,51.4,38.0,30.02,NE,53,2.0,4.0,60,0.00,,BKN100,0.00,0.00,VWS V14.01,2013-05-19 10:11:00,
2013-05-19 03:16:00,51.4,38.4,30.02,NE,44,3.0,4.0,61,0.00,,BKN100,0.00,0.00,VWS V14.01,2013-05-19 10:16:00,
2013-05-19 03:21:00,51.4,38.4,30.02,NE,35,2.0,3.0,61,0.00,,BKN100,0.00,0.00,VWS V14.01,2013-05-19 10:21:00,
2013-05-19 03:26:00,51.5,38.5,30.02,NE,46,0.0,2.0,61,0.00,,BKN100,0.00,0.00,VWS V14.01,2013-05-19 10:26:00,
2013-05-19 03:31:00,51.4,38.4,30.02,NE,46,1.0,3.0,61,0.00,,BKN100,0.00,0.00,VWS V14.01,2013-05-19 10:31:00,
2013-05-19 03:36:00,51.3,38.3,30.02,NE,46,0.0,2.0,61,0.00,,BKN100,0.00,0.00,VWS V14.01,2013-05-19 10:36:00,
2013-05-19 03:41:00,51.2,38.2,30.02,NE,46,0.0,1.0,61,0.00,,BKN100,0.00,0.00,VWS V14.01,2013-05-19 10:41:00,
2013-05-19 03:46:00,51.0,38.0,30.02,NE,46,1.0,1.0,61,0.00,,BKN100,0.00,0.00,VWS V14.01,2013-05-19 10:46:00,
2013-05-19 03:51:00,50.6,38.1,30.02,NE,46,1.0,2.0,62,0.00,,BKN100,0.00,0.00,VWS V14.01,2013-05-19 10:51:00,
2013-05-19 03:56:00,50.2,37.7,30.02,NE,46,2.0,2.0,62,0.00,,BKN100,0.00,0.00,VWS V14.01,2013-05-19 10:56:00,
2013-05-19 04:01:00,49.8,37.7,30.02,NE,46,1.0,2.0,63,0.00,,SCT100,0.00,0.00,VWS V14.01,2013-05-19 11:01:00,
2013-05-19 04:06:00,49.5,37.8,30.03,NE,35,2.0,3.0,64,0.00,,SCT100,0.00,0.00,VWS V14.01,2013-05-19 11:06:00,
2013-05-19 04:11:00,49.5,37.8,30.03,NE,37,2.0,6.0,64,0.00,,SCT100,0.00,0.00,VWS V14.01,2013-05-19 11:11:00,
2013-05-19 04:16:00,50.1,37.6,30.03,NNE,17,0.0,2.0,62,0.00,,SCT100,0.00,0.00,VWS V14.01,2013-05-19 11:16:00,
2013-05-19 04:21:00,50.0,37.5,30.03,NNE,17,0.0,0.0,62,0.00,,SCT100,0.00,0.00,VWS V14.01,2013-05-19 11:21:00,
2013-05-19 04:26:00,49.9,37.8,30.03,NNW,334,2.0,2.0,63,0.00,,SCT100,0.00,0.00,VWS V14.01,2013-05-19 11:26:00,
2013-05-19 04:31:00,49.7,37.6,30.03,NNW,336,0.0,1.0,63,0.00,,SCT100,0.00,0.00,VWS V14.01,2013-05-19 11:31:00,
2013-05-19 04:36:00,49.6,37.5,30.03,NNW,336,2.0,2.0,63,0.00,,SCT100,0.00,0.00,VWS V14.01,2013-05-19 11:36:00,
2013-05-19 04:41:00,49.5,37.4,30.03,North,5,2.0,2.0,63,0.00,,SCT100,0.00,0.00,VWS V14.01,2013-05-19 11:41:00,
2013-05-19 04:46:00,49.6,37.1,30.03,North,5,1.0,2.0,62,0.00,,SCT100,0.00,0.00,VWS V14.01,2013-05-19 11:46:00,
2013-05-19 04:51:00,49.7,37.2,30.03,NNE,30,0.0,4.0,62,0.00,,SCT100,0.00,0.00,VWS V14.01,2013-05-19 11:51:00,
2013-05-19 04:56:00,49.6,37.1,30.04,NNE,30,0.0,3.0,62,0.00,,SCT100,0.00,0.00,VWS V14.01,2013-05-19 11:56:00,
2013-05-19 05:01:00,49.5,37.0,30.04,NNE,30,0.0,1.0,62,0.00,,CLR,0.00,0.00,VWS V14.01,2013-05-19 12:01:00,
2013-05-19 05:06:00,49.7,37.2,30.04,NNE,20,1.0,3.0,62,0.00,,CLR,0.00,0.00,VWS V14.01,2013-05-19 12:06:00,
2013-05-19 05:11:00,49.8,36.9,30.04,NNW,348,0.0,2.0,61,0.00,,CLR,0.00,0.00,VWS V14.01,2013-05-19 12:11:00,
2013-05-19 05:16:00,50.1,36.8,30.04,North,5,2.0,4.0,60,0.00,,CLR,0.00,0.00,VWS V14.01,2013-05-19 12:16:00,
2013-05-19 05:21:00,50.4,36.6,30.04,NNE,31,2.0,3.0,59,0.00,,CLR,0.00,0.00,VWS V14.01,2013-05-19 12:21:00,
2013-05-19 05:26:00,50.0,36.2,30.04,NNE,31,0.0,1.0,59,0.00,,CLR,0.00,0.00,VWS V14.01,2013-05-19 12:26:00,
2013-05-19 05:31:00,49.5,36.2,30.04,North,5,0.0,2.0,60,0.00,,CLR,0.00,0.00,VWS V14.01,2013-05-19 12:31:00,
2013-05-19 05:36:00,49.2,36.3,30.04,North,355,2.0,2.0,61,0.00,,CLR,0.00,0.00,VWS V14.01,2013-05-19 12:36:00,
2013-05-19 05:41:00,49.0,36.2,30.04,North,355,2.0,3.0,61,0.00,,CLR,0.00,5.00,VWS V14.01,2013-05-19 12:41:00,
2013-05-19 05:46:00,49.2,36.8,30.05,NNE,22,3.0,4.0,62,0.00,,CLR,0.00,7.00,VWS V14.01,2013-05-19 12:46:00,
2013-05-19 05:51:00,49.2,36.3,30.05,North,5,5.0,6.0,61,0.00,,CLR,0.00,9.00,VWS V14.01,2013-05-19 12:51:00,
2013-05-19 05:56:00,49.4,36.5,30.05,NNE,26,7.0,10.0,61,0.00,,CLR,0.00,11.00,VWS V14.01,2013-05-19 12:56:00,
2013-05-19 06:01:00,49.6,36.7,30.06,NNW,346,7.0,8.0,61,0.00,,CLR,0.00,14.00,VWS V14.01,2013-05-19 13:01:00,
2013-05-19 06:06:00,49.6,36.3,30.06,NNW,341,6.0,9.0,60,0.00,,CLR,0.00,16.00,VWS V14.01,2013-05-19 13:06:00,
2013-05-19 06:11:00,49.6,36.3,30.06,North,350,4.0,9.0,60,0.00,,CLR,0.00,32.00,VWS V14.01,2013-05-19 13:11:00,
2013-05-19 06:16:00,49.7,36.4,30.06,North,350,7.0,8.0,60,0.00,,CLR,0.00,21.00,VWS V14.01,2013-05-19 13:16:00,
2013-05-19 06:21:00,49.6,36.3,30.06,NNW,342,9.0,9.0,60,0.00,,CLR,0.00,25.00,VWS V14.01,2013-05-19 13:21:00,
2013-05-19 06:26:00,49.7,36.8,30.06,North,355,4.0,8.0,61,0.00,,CLR,0.00,69.00,VWS V14.01,2013-05-19 13:26:00,
2013-05-19 06:31:00,49.9,36.6,30.06,NNE,14,9.0,10.0,60,0.00,,CLR,0.00,84.00,VWS V14.01,2013-05-19 13:31:00,
2013-05-19 06:36:00,50.3,36.5,30.06,North,11,9.0,11.0,59,0.00,,CLR,0.00,100.00,VWS V14.01,2013-05-19 13:36:00,
2013-05-19 06:41:00,50.5,36.3,30.06,NNE,23,7.0,9.0,58,0.00,,CLR,0.00,118.00,VWS V14.01,2013-05-19 13:41:00,
2013-05-19 06:46:00,51.0,36.8,30.07,NE,34,3.0,6.0,58,0.00,,CLR,0.00,111.00,VWS V14.01,2013-05-19 13:46:00,
2013-05-19 06:51:00,51.2,36.5,30.07,NNE,33,2.0,6.0,57,0.00,,CLR,0.00,156.00,VWS V14.01,2013-05-19 13:51:00,
2013-05-19 06:56:00,51.3,37.0,30.07,NE,40,2.0,4.0,58,0.00,,CLR,0.00,174.00,VWS V14.01,2013-05-19 13:56:00,
2013-05-19 07:01:00,51.4,36.7,30.07,NNW,348,1.0,5.0,57,0.00,,CLR,0.00,188.00,VWS V14.01,2013-05-19 14:01:00,
2013-05-19 07:06:00,51.9,36.7,30.07,North,9,6.0,8.0,56,0.00,,CLR,0.00,202.00,VWS V14.01,2013-05-19 14:06:00,
2013-05-19 07:11:00,52.1,36.4,30.07,North,5,2.0,8.0,55,0.00,,CLR,0.00,218.00,VWS V14.01,2013-05-19 14:11:00,
2013-05-19 07:16:00,52.4,36.7,30.07,NNE,21,3.0,9.0,55,0.00,,CLR,0.00,232.00,VWS V14.01,2013-05-19 14:16:00,
2013-05-19 07:21:00,52.7,36.5,30.07,North,360,4.0,9.0,54,0.00,,CLR,0.00,246.00,VWS V14.01,2013-05-19 14:21:00,
2013-05-19 07:26:00,52.6,36.5,30.07,NNW,331,3.0,10.0,54,0.00,,CLR,0.00,264.00,VWS V14.01,2013-05-19 14:26:00,
2013-05-19 07:31:00,52.8,36.6,30.08,NNW,335,5.0,9.0,54,0.00,,CLR,0.00,278.00,VWS V14.01,2013-05-19 14:31:00,
2013-05-19 07:36:00,53.2,36.5,30.08,North,360,5.0,10.0,53,0.00,,CLR,0.00,294.00,VWS V14.01,2013-05-19 14:36:00,
2013-05-19 07:41:00,53.6,36.4,30.08,North,5,3.0,9.0,52,0.00,,CLR,0.00,309.00,VWS V14.01,2013-05-19 14:41:00,
2013-05-19 07:46:00,53.8,36.6,30.08,NNE,16,3.0,5.0,52,0.00,,CLR,0.00,329.00,VWS V14.01,2013-05-19 14:46:00,
2013-05-19 07:51:00,54.1,35.9,30.08,North,360,2.0,6.0,50,0.00,,CLR,0.00,341.00,VWS V14.01,2013-05-19 14:51:00,
2013-05-19 07:56:00,54.1,35.9,30.08,North,355,7.0,10.0,50,0.00,,CLR,0.00,357.00,VWS V14.01,2013-05-19 14:56:00,
2013-05-19 08:01:00,54.5,35.8,30.08,NNE,19,3.0,7.0,49,0.00,,CLR,0.00,373.00,VWS V14.01,2013-05-19 15:01:00,
2013-05-19 08:06:00,54.7,35.9,30.08,NNE,25,6.0,10.0,49,0.00,,CLR,0.00,388.00,VWS V14.01,2013-05-19 15:06:00,
2013-05-19 08:11:00,54.9,36.1,30.08,NE,42,6.0,9.0,49,0.00,,CLR,0.00,429.00,VWS V14.01,2013-05-19 15:11:00,
2013-05-19 08:16:00,55.6,36.8,30.08,NNE,23,8.0,9.0,49,0.00,,CLR,0.00,438.00,VWS V14.01,2013-05-19 15:16:00,
2013-05-19 08:21:00,55.8,35.9,30.09,NE,40,9.0,9.0,47,0.00,,CLR,0.00,441.00,VWS V14.01,2013-05-19 15:21:00,
2013-05-19 08:26:00,55.7,36.3,30.09,NE,49,8.0,13.0,48,0.00,,CLR,0.00,454.00,VWS V14.01,2013-05-19 15:26:00,
2013-05-19 08:31:00,55.8,35.9,30.08,NNE,26,5.0,8.0,47,0.00,,CLR,0.00,473.00,VWS V14.01,2013-05-19 15:31:00,
2013-05-19 08:36:00,56.3,35.8,30.08,NE,54,9.0,10.0,46,0.00,,CLR,0.00,489.00,VWS V14.01,2013-05-19 15:36:00,
2013-05-19 08:41:00,56.4,35.9,30.08,NNE,28,4.0,9.0,46,0.00,,CLR,0.00,506.00,VWS V14.01,2013-05-19 15:41:00,
2013-05-19 08:46:00,56.6,36.1,30.08,NNE,29,8.0,11.0,46,0.00,,CLR,0.00,515.00,VWS V14.01,2013-05-19 15:46:00,
2013-05-19 08:51:00,57.1,36.0,30.08,NE,44,4.0,6.0,45,0.00,,CLR,0.00,538.00,VWS V14.01,2013-05-19 15:51:00,
2013-05-19 08:56:00,57.0,35.9,30.08,NE,34,9.0,9.0,45,0.00,,CLR,0.00,571.00,VWS V14.01,2013-05-19 15:56:00,
2013-05-19 09:01:00,57.4,35.7,30.08,NNE,32,9.0,10.0,44,0.00,,CLR,0.00,610.00,VWS V14.01,2013-05-19 16:01:00,
2013-05-19 09:06:00,57.3,35.6,30.08,NNE,16,5.0,10.0,44,0.00,,CLR,0.00,635.00,VWS V14.01,2013-05-19 16:06:00,
2013-05-19 09:11:00,58.1,35.2,30.08,North,355,3.0,11.0,42,0.00,,CLR,0.00,675.00,VWS V14.01,2013-05-19 16:11:00,
2013-05-19 09:16:00,58.8,35.2,30.08,NE,36,7.0,8.0,41,0.00,,CLR,0.00,686.00,VWS V14.01,2013-05-19 16:16:00,
2013-05-19 09:21:00,58.7,35.1,30.08,NNE,19,9.0,11.0,41,0.00,,CLR,0.00,670.00,VWS V14.01,2013-05-19 16:21:00,
2013-05-19 09:26:00,59.0,33.5,30.08,NNE,27,2.0,5.0,38,0.00,,CLR,0.00,700.00,VWS V14.01,2013-05-19 16:26:00,
2013-05-19 09:31:00,59.7,34.1,30.07,North,5,6.0,8.0,38,0.00,,CLR,0.00,770.00,VWS V14.01,2013-05-19 16:31:00,
2013-05-19 09:36:00,59.8,33.5,30.07,NNE,16,7.0,12.0,37,0.00,,CLR,0.00,742.00,VWS V14.01,2013-05-19 16:36:00,
2013-05-19 09:41:00,59.7,34.1,30.07,NE,40,5.0,8.0,38,0.00,,CLR,0.00,761.00,VWS V14.01,2013-05-19 16:41:00,
2013-05-19 09:46:00,60.0,33.0,30.07,North,11,7.0,10.0,36,0.00,,CLR,0.00,780.00,VWS V14.01,2013-05-19 16:46:00,
2013-05-19 09:51:00,60.4,33.3,30.07,NE,51,8.0,13.0,36,0.00,,CLR,0.00,793.00,VWS V14.01,2013-05-19 16:51:00,
2013-05-19 09:56:00,60.8,33.7,30.07,NNE,18,3.0,8.0,36,0.00,,CLR,0.00,759.00,VWS V14.01,2013-05-19 16:56:00,
2013-05-19 10:01:00,60.3,33.3,30.07,North,355,6.0,10.0,36,0.00,,CLR,0.00,737.00,VWS V14.01,2013-05-19 17:01:00,
2013-05-19 10:06:00,60.3,32.6,30.07,NNE,24,5.0,10.0,35,0.00,,CLR,0.00,761.00,VWS V14.01,2013-05-19 17:06:00,
2013-05-19 10:11:00,60.4,32.7,30.07,East,89,3.0,11.0,35,0.00,,CLR,0.00,784.00,VWS V14.01,2013-05-19 17:11:00,
2013-05-19 10:16:00,61.6,33.0,30.07,NW,322,3.0,8.0,34,0.00,,CLR,0.00,851.00,VWS V14.01,2013-05-19 17:16:00,
2013-05-19 10:21:00,61.1,31.0,30.07,NW,317,3.0,12.0,32,0.00,,CLR,0.00,527.00,VWS V14.01,2013-05-19 17:21:00,
2013-05-19 10:26:00,60.9,30.1,30.07,North,10,6.0,12.0,31,0.00,,CLR,0.00,770.00,VWS V14.01,2013-05-19 17:26:00,
2013-05-19 10:31:00,61.2,29.5,30.07,NE,40,6.0,11.0,30,0.00,,CLR,0.00,842.00,VWS V14.01,2013-05-19 17:31:00,
2013-05-19 10:36:00,60.6,29.0,30.07,NW,323,4.0,4.0,30,0.00,,CLR,0.00,896.00,VWS V14.01,2013-05-19 17:36:00,
2013-05-19 10:41:00,61.7,30.8,30.07,NNE,25,0.0,4.0,31,0.00,,CLR,0.00,882.00,VWS V14.01,2013-05-19 17:41:00,
2013-05-19 10:46:00,62.9,31.8,30.07,NW,325,3.0,9.0,31,0.00,,CLR,0.00,889.00,VWS V14.01,2013-05-19 17:46:00,
2013-05-19 10:51:00,61.8,30.9,30.07,NE,40,1.0,8.0,31,0.00,,CLR,0.00,378.00,VWS V14.01,2013-05-19 17:51:00,
2013-05-19 10:56:00,61.4,32.1,30.07,NW,323,3.0,8.0,33,0.00,,CLR,0.00,415.00,VWS V14.01,2013-05-19 17:56:00,
2013-05-19 11:01:00,62.0,31.8,30.07,NNW,342,8.0,11.0,32,0.00,,FEW060,0.00,909.00,VWS V14.01,2013-05-19 18:01:00,
2013-05-19 11:06:00,62.4,31.4,30.07,NW,317,4.0,7.0,31,0.00,,SCT100,0.00,1037.00,VWS V14.01,2013-05-19 18:06:00,
2013-05-19 11:11:00,63.1,32.0,30.07,NNE,24,10.0,10.0,31,0.00,,SCT100,0.00,281.00,VWS V14.01,2013-05-19 18:11:00,
2013-05-19 11:16:00,62.9,31.8,30.07,NNW,344,6.0,10.0,31,0.00,,SCT100,0.00,956.00,VWS V14.01,2013-05-19 18:16:00,
2013-05-19 11:21:00,63.4,31.5,30.07,East,96,3.0,3.0,30,0.00,,SCT100,0.00,243.00,VWS V14.01,2013-05-19 18:21:00,
2013-05-19 11:26:00,64.1,32.1,30.07,NE,55,1.0,5.0,30,0.00,,SCT100,0.00,933.00,VWS V14.01,2013-05-19 18:26:00,
2013-05-19 11:31:00,64.4,29.7,30.07,North,350,6.0,11.0,27,0.00,,SCT100,0.00,919.00,VWS V14.01,2013-05-19 18:31:00,
2013-05-19 11:36:00,63.9,30.2,30.07,NE,41,6.0,6.0,28,0.00,,SCT100,0.00,905.00,VWS V14.01,2013-05-19 18:36:00,
2013-05-19 11:41:00,64.9,30.1,30.06,SE,128,5.0,8.0,27,0.00,,SCT100,0.00,905.00,VWS V14.01,2013-05-19 18:41:00,
2013-05-19 11:46:00,65.8,30.0,30.06,ESE,107,3.0,3.0,26,0.00,,SCT100,0.00,921.00,VWS V14.01,2013-05-19 18:46:00,
2013-05-19 11:51:00,66.3,29.5,30.05,NE,42,8.0,13.0,25,0.00,,SCT100,0.00,930.00,VWS V14.01,2013-05-19 18:51:00,
2013-05-19 11:56:00,65.8,29.0,30.06,NE,55,3.0,7.0,25,0.00,,SCT100,0.00,942.00,VWS V14.01,2013-05-19 18:56:00,
2013-05-19 12:01:00,66.0,29.2,30.05,NNW,329,9.0,9.0,25,0.00,,SCT100,0.00,949.00,VWS V14.01,2013-05-19 19:01:00,
2013-05-19 12:06:00,64.5,28.9,30.05,NNW,339,7.0,10.0,26,0.00,,SCT100,0.00,185.00,VWS V14.01,2013-05-19 19:06:00,
2013-05-19 12:11:00,64.6,29.9,30.05,NNW,333,3.0,7.0,27,0.00,,SCT100,0.00,930.00,VWS V14.01,2013-05-19 19:11:00,
2013-05-19 12:16:00,65.6,29.8,30.05,NNE,23,3.0,5.0,26,0.00,,SCT100,0.00,940.00,VWS V14.01,2013-05-19 19:16:00,
2013-05-19 12:21:00,66.5,30.6,30.05,NE,34,6.0,7.0,26,0.00,,SCT100,0.00,942.00,VWS V14.01,2013-05-19 19:21:00,
2013-05-19 12:26:00,65.7,29.9,30.05,NNE,28,3.0,5.0,26,0.00,,SCT100,0.00,947.00,VWS V14.01,2013-05-19 19:26:00,
2013-05-19 12:31:00,66.2,31.3,30.04,North,5,7.0,7.0,27,0.00,,SCT100,0.00,956.00,VWS V14.01,2013-05-19 19:31:00,
2013-05-19 12:36:00,65.9,30.1,30.04,NE,42,10.0,10.0,26,0.00,,SCT100,0.00,471.00,VWS V14.01,2013-05-19 19:36:00,
2013-05-19 12:41:00,65.3,30.5,30.04,NNE,29,2.0,11.0,27,0.00,,SCT100,0.00,962.00,VWS V14.01,2013-05-19 19:41:00,
2013-05-19 12:46:00,65.9,31.0,30.03,ENE,67,3.0,6.0,27,0.00,,SCT100,0.00,947.00,VWS V14.01,2013-05-19 19:46:00,
2013-05-19 12:51:00,66.8,29.9,30.03,North,5,5.0,12.0,25,0.00,,SCT100,0.00,956.00,VWS V14.01,2013-05-19 19:51:00,
2013-05-19 12:56:00,67.0,30.0,30.03,NW,325,4.0,5.0,25,0.00,,SCT100,0.00,946.00,VWS V14.01,2013-05-19 19:56:00,
2013-05-19 13:01:00,67.5,30.5,30.03,NE,47,13.0,13.0,25,0.00,,FEW080,0.00,944.00,VWS V14.01,2013-05-19 20:01:00,
2013-05-19 13:06:00,67.3,28.3,30.03,NW,326,2.0,8.0,23,0.00,,FEW080,0.00,942.00,VWS V14.01,2013-05-19 20:06:00,
2013-05-19 13:11:00,68.0,30.9,30.03,East,86,9.0,14.0,25,0.00,,FEW080,0.00,940.00,VWS V14.01,2013-05-19 20:11:00,
2013-05-19 13:16:00,67.8,30.7,30.03,NNW,340,4.0,6.0,25,0.00,,FEW080,0.00,960.00,VWS V14.01,2013-05-19 20:16:00,
2013-05-19 13:21:00,67.6,27.4,30.03,NNE,22,8.0,10.0,22,0.00,,FEW080,0.00,940.00,VWS V14.01,2013-05-19 20:21:00,
2013-05-19 13:26:00,67.3,27.2,30.03,NE,44,1.0,7.0,22,0.00,,FEW080,0.00,937.00,VWS V14.01,2013-05-19 20:26:00,
2013-05-19 13:31:00,68.4,27.0,30.02,NNE,18,1.0,6.0,21,0.00,,FEW080,0.00,937.00,VWS V14.01,2013-05-19 20:31:00,
2013-05-19 13:36:00,69.2,26.5,30.02,North,9,8.0,10.0,20,0.00,,FEW080,0.00,933.00,VWS V14.01,2013-05-19 20:36:00,
2013-05-19 13:41:00,68.5,25.9,30.02,ENE,59,7.0,9.0,20,0.00,,FEW080,0.00,930.00,VWS V14.01,2013-05-19 20:41:00,
2013-05-19 13:46:00,68.9,26.2,30.02,NW,319,7.0,9.0,20,0.00,,FEW080,0.00,928.00,VWS V14.01,2013-05-19 20:46:00,
2013-05-19 13:51:00,68.9,25.0,30.02,West,281,4.0,5.0,19,0.00,,FEW080,0.00,921.00,VWS V14.01,2013-05-19 20:51:00,
2013-05-19 13:56:00,69.7,25.6,30.01,WNW,287,1.0,6.0,19,0.00,,FEW080,0.00,921.00,VWS V14.01,2013-05-19 20:56:00,
2013-05-19 14:01:00,70.1,23.3,30.01,ENE,77,4.0,8.0,17,0.00,,FEW080,0.00,914.00,VWS V14.01,2013-05-19 21:01:00,
2013-05-19 14:06:00,69.5,25.5,30.01,NE,51,7.0,11.0,19,0.00,,FEW080,0.00,909.00,VWS V14.01,2013-05-19 21:06:00,
2013-05-19 14:11:00,69.7,25.6,30.01,NNE,26,7.0,16.0,19,0.00,,FEW080,0.00,902.00,VWS V14.01,2013-05-19 21:11:00,
2013-05-19 14:16:00,69.5,25.5,30.01,NE,50,4.0,7.0,19,0.00,,FEW080,0.00,893.00,VWS V14.01,2013-05-19 21:16:00,
2013-05-19 14:21:00,70.2,26.0,30.01,NNE,26,3.0,5.0,19,0.00,,FEW080,0.00,886.00,VWS V14.01,2013-05-19 21:21:00,
2013-05-19 14:26:00,70.6,26.4,30.00,NNE,22,5.0,6.0,19,0.00,,FEW080,0.00,882.00,VWS V14.01,2013-05-19 21:26:00,
2013-05-19 14:31:00,69.6,22.9,30.00,North,355,9.0,12.0,17,0.00,,FEW080,0.00,879.00,VWS V14.01,2013-05-19 21:31:00,
2013-05-19 14:36:00,69.8,23.1,30.00,NNE,19,15.0,15.0,17,0.00,,FEW080,0.00,872.00,VWS V14.01,2013-05-19 21:36:00,
2013-05-19 14:41:00,69.6,21.5,30.00,NW,314,2.0,6.0,16,0.00,,FEW080,0.00,863.00,VWS V14.01,2013-05-19 21:41:00,
2013-05-19 14:46:00,70.6,22.3,30.00,NW,307,2.0,10.0,16,0.00,,FEW080,0.00,853.00,VWS V14.01,2013-05-19 21:46:00,
2013-05-19 14:51:00,71.2,21.2,30.00,NNE,18,1.0,6.0,15,0.00,,FEW080,0.00,849.00,VWS V14.01,2013-05-19 21:51:00,
2013-05-19 14:56:00,71.0,19.4,30.00,NNE,30,9.0,10.0,14,0.00,,FEW080,0.00,840.00,VWS V14.01,2013-05-19 21:56:00,
2013-05-19 15:01:00,71.2,24.2,30.00,NW,322,4.0,8.0,17,0.00,,FEW080,0.00,828.00,VWS V14.01,2013-05-19 22:01:00,
2013-05-19 15:06:00,71.5,24.4,30.00,NNW,347,5.0,7.0,17,0.00,,FEW080,0.00,817.00,VWS V14.01,2013-05-19 22:06:00,
2013-05-19 15:11:00,70.9,24.0,30.00,NE,40,5.0,7.0,17,0.00,,FEW080,0.00,809.00,VWS V14.01,2013-05-19 22:11:00,
2013-05-19 15:16:00,71.2,24.2,30.00,ENE,69,8.0,9.0,17,0.00,,FEW080,0.00,798.00,VWS V14.01,2013-05-19 22:16:00,
2013-05-19 15:21:00,70.6,23.7,30.00,NE,34,9.0,13.0,17,0.00,,FEW080,0.00,770.00,VWS V14.01,2013-05-19 22:21:00,
2013-05-19 15:26:00,70.7,23.8,30.00,NE,54,5.0,9.0,17,0.00,,FEW080,0.00,775.00,VWS V14.01,2013-05-19 22:26:00,
2013-05-19 15:31:00,71.2,24.2,29.99,NE,34,13.0,13.0,17,0.00,,FEW080,0.00,766.00,VWS V14.01,2013-05-19 22:31:00,
2013-05-19 15:36:00,71.2,24.2,29.99,NNE,30,6.0,13.0,17,0.00,,FEW080,0.00,758.00,VWS V14.01,2013-05-19 22:36:00,
2013-05-19 15:41:00,70.3,23.5,30.00,NNW,347,2.0,6.0,17,0.00,,FEW080,0.00,744.00,VWS V14.01,2013-05-19 22:41:00,
2013-05-19 15:46:00,70.7,23.8,29.99,ENE,60,1.0,8.0,17,0.00,,FEW080,0.00,731.00,VWS V14.01,2013-05-19 22:46:00,
2013-05-19 15:51:00,71.7,24.6,29.99,NNE,28,9.0,11.0,17,0.00,,FEW080,0.00,737.00,VWS V14.01,2013-05-19 22:51:00,
2013-05-19 15:56:00,70.8,23.9,29.99,North,355,10.0,13.0,17,0.00,,FEW080,0.00,710.00,VWS V14.01,2013-05-19 22:56:00,
2013-05-19 16:01:00,70.4,23.5,29.99,NW,323,5.0,11.0,17,0.00,,FEW080,0.00,696.00,VWS V14.01,2013-05-19 23:01:00,
2013-05-19 16:06:00,71.0,24.0,29.99,NNE,31,8.0,9.0,17,0.00,,FEW080,0.00,682.00,VWS V14.01,2013-05-19 23:06:00,
2013-05-19 16:11:00,71.0,22.6,29.99,WNW,302,5.0,7.0,16,0.00,,FEW080,0.00,668.00,VWS V14.01,2013-05-19 23:11:00,
2013-05-19 16:16:00,71.0,22.6,29.99,NE,38,12.0,12.0,16,0.00,,FEW080,0.00,654.00,VWS V14.01,2013-05-19 23:16:00,
2013-05-19 16:21:00,71.7,23.1,29.99,North,355,7.0,7.0,16,0.00,,FEW080,0.00,643.00,VWS V14.01,2013-05-19 23:21:00,
2013-05-19 16:26:00,71.7,21.6,29.99,NE,48,8.0,13.0,15,0.00,,FEW080,0.00,628.00,VWS V14.01,2013-05-19 23:26:00,
2013-05-19 16:31:00,71.1,22.7,29.98,NE,42,4.0,8.0,16,0.00,,FEW080,0.00,613.00,VWS V14.01,2013-05-19 23:31:00,
2013-05-19 16:36:00,71.1,22.7,29.98,NE,42,3.0,6.0,16,0.00,,FEW080,0.00,601.00,VWS V14.01,2013-05-19 23:36:00,
2013-05-19 16:41:00,71.6,23.1,29.98,North,351,5.0,12.0,16,0.00,,FEW080,0.00,589.00,VWS V14.01,2013-05-19 23:41:00,
2013-05-19 16:46:00,71.5,21.5,29.99,NNW,348,7.0,10.0,15,0.00,,FEW080,0.00,575.00,VWS V14.01,2013-05-19 23:46:00,
2013-05-19 16:51:00,71.6,21.5,29.98,North,5,10.0,10.0,15,0.00,,FEW080,0.00,557.00,VWS V14.01,2013-05-19 23:51:00,
2013-05-19 16:56:00,71.3,21.3,29.98,ENE,69,9.0,11.0,15,0.00,,FEW080,0.00,543.00,VWS V14.01,2013-05-19 23:56:00,
2013-05-19 17:01:00,71.7,21.6,29.98,NE,34,10.0,10.0,15,0.00,,SCT250,0.00,527.00,VWS V14.01,2013-05-20 00:01:00,
2013-05-19 17:06:00,71.1,21.1,29.98,North,350,12.0,13.0,15,0.00,,SCT250,0.00,513.00,VWS V14.01,2013-05-20 00:06:00,
2013-05-19 17:11:00,70.8,20.9,29.98,NNW,347,3.0,7.0,15,0.00,,SCT250,0.00,499.00,VWS V14.01,2013-05-20 00:11:00,
2013-05-19 17:16:00,70.7,19.2,29.98,North,5,11.0,15.0,14,0.00,,SCT250,0.00,492.00,VWS V14.01,2013-05-20 00:16:00,
2013-05-19 17:21:00,70.6,20.7,29.98,NE,51,11.0,11.0,15,0.00,,SCT250,0.00,471.00,VWS V14.01,2013-05-20 00:21:00,
2013-05-19 17:26:00,71.1,21.1,29.98,NNE,30,5.0,7.0,15,0.00,,SCT250,0.00,452.00,VWS V14.01,2013-05-20 00:26:00,
2013-05-19 17:31:00,71.0,17.7,29.98,NE,36,7.0,15.0,13,0.00,,SCT250,0.00,438.00,VWS V14.01,2013-05-20 00:31:00,
2013-05-19 17:36:00,70.9,19.4,29.98,NNW,347,9.0,16.0,14,0.00,,SCT250,0.00,422.00,VWS V14.01,2013-05-20 00:36:00,
2013-05-19 17:41:00,70.4,17.2,29.98,NNE,15,7.0,12.0,13,0.00,,SCT250,0.00,404.00,VWS V14.01,2013-05-20 00:41:00,
2013-05-19 17:46:00,70.2,17.1,29.98,NNE,23,4.0,12.0,13,0.00,,SCT250,0.00,392.00,VWS V14.01,2013-05-20 00:46:00,
2013-05-19 17:51:00,70.5,17.3,29.98,NNW,334,8.0,14.0,13,0.00,,SCT250,0.00,376.00,VWS V14.01,2013-05-20 00:51:00,
2013-05-19 17:56:00,70.0,18.6,29.98,NW,325,5.0,7.0,14,0.00,,SCT250,0.00,360.00,VWS V14.01,2013-05-20 00:56:00,
2013-05-19 18:01:00,70.0,18.6,29.98,North,9,6.0,9.0,14,0.00,,SCT250,0.00,343.00,VWS V14.01,2013-05-20 01:01:00,
2013-05-19 18:06:00,69.9,18.6,29.98,NE,42,6.0,13.0,14,0.00,,SCT250,0.00,325.00,VWS V14.01,2013-05-20 01:06:00,
2013-05-19 18:11:00,69.5,18.2,29.98,North,355,10.0,11.0,14,0.00,,SCT250,0.00,309.00,VWS V14.01,2013-05-20 01:11:00,
2013-05-19 18:16:00,69.7,18.4,29.98,NNE,12,12.0,13.0,14,0.00,,SCT250,0.00,292.00,VWS V14.01,2013-05-20 01:16:00,
2013-05-19 18:21:00,69.1,17.9,29.98,NE,55,9.0,11.0,14,0.00,,SCT250,0.00,276.00,VWS V14.01,2013-05-20 01:21:00,
2013-05-19 18:26:00,69.0,17.9,29.98,NE,45,6.0,11.0,14,0.00,,SCT250,0.00,262.00,VWS V14.01,2013-05-20 01:26:00,
2013-05-19 18:31:00,69.1,16.2,29.97,NE,53,13.0,15.0,13,0.00,,SCT250,0.00,243.00,VWS V14.01,2013-05-20 01:31:00,
2013-05-19 18:36:00,68.6,17.5,29.97,NE,51,10.0,15.0,14,0.00,,SCT250,0.00,225.00,VWS V14.01,2013-05-20 01:36:00,
2013-05-19 18:41:00,68.4,17.4,29.97,NNE,25,9.0,14.0,14,0.00,,SCT250,0.00,206.00,VWS V14.01,2013-05-20 01:41:00,
2013-05-19 18:46:00,68.3,17.3,29.98,North,351,7.0,15.0,14,0.00,,SCT250,0.00,190.00,VWS V14.01,2013-05-20 01:46:00,
2013-05-19 18:51:00,68.0,18.7,29.98,NE,46,8.0,17.0,15,0.00,,SCT250,0.00,169.00,VWS V14.01,2013-05-20 01:51:00,
2013-05-19 18:56:00,67.7,18.4,29.98,North,10,9.0,13.0,15,0.00,,SCT250,0.00,149.00,VWS V14.01,2013-05-20 01:56:00,
2013-05-19 19:01:00,67.7,19.9,29.98,NNE,17,6.0,10.0,16,0.00,,CLR,0.00,134.00,VWS V14.01,2013-05-20 02:01:00,
2013-05-19 19:06:00,67.4,18.2,29.99,NNE,12,10.0,14.0,15,0.00,,CLR,0.00,114.00,VWS V14.01,2013-05-20 02:06:00,
2013-05-19 19:11:00,67.1,19.4,29.99,NE,35,8.0,11.0,16,0.00,,CLR,0.00,98.00,VWS V14.01,2013-05-20 02:11:00,
2013-05-19 19:16:00,67.0,19.4,29.99,North,5,11.0,12.0,16,0.00,,CLR,0.00,83.00,VWS V14.01,2013-05-20 02:16:00,
2013-05-19 19:21:00,66.7,19.1,29.99,NE,42,10.0,14.0,16,0.00,,CLR,0.00,69.00,VWS V14.01,2013-05-20 02:21:00,
2013-05-19 19:26:00,66.4,18.9,29.99,NE,38,7.0,13.0,16,0.00,,CLR,0.00,54.00,VWS V14.01,2013-05-20 02:26:00,
2013-05-19 19:31:00,66.2,18.7,30.00,NNE,19,11.0,11.0,16,0.00,,CLR,0.00,44.00,VWS V14.01,2013-05-20 02:31:00,
2013-05-19 19:36:00,65.7,19.7,30.00,NNE,16,6.0,10.0,17,0.00,,CLR,0.00,30.00,VWS V14.01,2013-05-20 02:36:00,
2013-05-19 19:41:00,65.4,22.1,30.00,NE,34,9.0,13.0,19,0.00,,CLR,0.00,21.00,VWS V14.01,2013-05-20 02:41:00,
2013-05-19 19:46:00,65.0,21.8,30.00,North,9,14.0,16.0,19,0.00,,CLR,0.00,14.00,VWS V14.01,2013-05-20 02:46:00,
2013-05-19 19:51:00,64.7,21.5,30.00,North,5,5.0,9.0,19,0.00,,CLR,0.00,12.00,VWS V14.01,2013-05-20 02:51:00,
2013-05-19 19:56:00,64.4,21.3,30.00,NNE,26,6.0,9.0,19,0.00,,CLR,0.00,9.00,VWS V14.01,2013-05-20 02:56:00,
2013-05-19 20:01:00,64.0,22.1,30.00,North,10,5.0,12.0,20,0.00,,CLR,0.00,7.00,VWS V14.01,2013-05-20 03:01:00,
2013-05-19 20:06:00,63.9,20.9,30.00,NNE,27,9.0,13.0,19,0.00,,CLR,0.00,5.00,VWS V14.01,2013-05-20 03:06:00,
2013-05-19 20:11:00,63.6,21.8,30.01,North,5,4.0,8.0,20,0.00,,CLR,0.00,0.00,VWS V14.01,2013-05-20 03:11:00,
2013-05-19 20:16:00,63.2,21.5,30.01,NNE,22,7.0,8.0,20,0.00,,CLR,0.00,0.00,VWS V14.01,2013-05-20 03:16:00,
2013-05-19 20:21:00,62.9,22.4,30.01,NNE,31,5.0,8.0,21,0.00,,CLR,0.00,0.00,VWS V14.01,2013-05-20 03:21:00,
2013-05-19 20:26:00,62.6,22.1,30.01,NE,49,7.0,10.0,21,0.00,,CLR,0.00,0.00,VWS V14.01,2013-05-20 03:26:00,
2013-05-19 20:31:00,62.4,22.0,30.01,NE,39,5.0,7.0,21,0.00,,CLR,0.00,0.00,VWS V14.01,2013-05-20 03:31:00,
2013-05-19 20:36:00,62.3,20.8,30.01,NNE,27,6.0,7.0,20,0.00,,CLR,0.00,0.00,VWS V14.01,2013-05-20 03:36:00,
2013-05-19 20:41:00,62.1,20.6,30.01,NE,40,8.0,9.0,20,0.00,,CLR,0.00,0.00,VWS V14.01,2013-05-20 03:41:00,
2013-05-19 20:46:00,61.9,20.4,30.01,NNE,32,7.0,8.0,20,0.00,,CLR,0.00,0.00,VWS V14.01,2013-05-20 03:46:00,
2013-05-19 20:51:00,61.7,20.2,30.02,NE,41,6.0,8.0,20,0.00,,CLR,0.00,0.00,VWS V14.01,2013-05-20 03:51:00,
2013-05-19 20:56:00,61.3,19.9,30.02,NE,37,7.0,7.0,20,0.00,,CLR,0.00,0.00,VWS V14.01,2013-05-20 03:56:00,
2013-05-19 21:01:00,61.0,20.8,30.02,NE,46,3.0,5.0,21,0.00,,CLR,0.00,0.00,VWS V14.01,2013-05-20 04:01:00,
2013-05-19 21:06:00,60.5,20.4,30.02,NE,40,5.0,8.0,21,0.00,,CLR,0.00,0.00,VWS V14.01,2013-05-20 04:06:00,
2013-05-19 21:11:00,60.4,21.4,30.02,NE,49,5.0,7.0,22,0.00,,CLR,0.00,0.00,VWS V14.01,2013-05-20 04:11:00,
2013-05-19 21:16:00,60.1,21.1,30.03,NNE,30,6.0,7.0,22,0.00,,CLR,0.00,0.00,VWS V14.01,2013-05-20 04:16:00,
2013-05-19 21:21:00,59.9,21.0,30.03,NNE,22,5.0,7.0,22,0.00,,CLR,0.00,0.00,VWS V14.01,2013-05-20 04:21:00,
2013-05-19 21:26:00,59.6,21.8,30.03,NE,46,4.0,9.0,23,0.00,,CLR,0.00,0.00,VWS V14.01,2013-05-20 04:26:00,
2013-05-19 21:31:00,59.2,22.5,30.03,NE,43,3.0,7.0,24,0.00,,CLR,0.00,0.00,VWS V14.01,2013-05-20 04:31:00,
2013-05-19 21:36:00,58.9,22.2,30.04,NE,48,6.0,6.0,24,0.00,,CLR,0.00,0.00,VWS V14.01,2013-05-20 04:36:00,
2013-05-19 21:41:00,58.7,22.0,30.04,NE,41,3.0,8.0,24,0.00,,CLR,0.00,0.00,VWS V14.01,2013-05-20 04:41:00,
2013-05-19 21:46:00,58.5,22.8,30.04,NE,40,4.0,10.0,25,0.00,,CLR,0.00,0.00,VWS V14.01,2013-05-20 04:46:00,
2013-05-19 21:51:00,58.5,22.8,30.04,NE,40,6.0,9.0,25,0.00,,CLR,0.00,0.00,VWS V14.01,2013-05-20 04:51:00,
2013-05-19 21:56:00,58.6,22.9,30.05,NE,38,10.0,10.0,25,0.00,,CLR,0.00,0.00,VWS V14.01,2013-05-20 04:56:00,
2013-05-19 22:01:00,58.8,22.1,30.05,NE,43,6.0,11.0,24,0.00,,CLR,0.00,0.00,VWS V14.01,2013-05-20 05:01:00,
2013-05-19 22:06:00,58.7,22.0,30.05,NE,50,8.0,9.0,24,0.00,,CLR,0.00,0.00,VWS V14.01,2013-05-20 05:06:00,
2013-05-19 22:11:00,58.6,21.9,30.05,NE,40,8.0,13.0,24,0.00,,CLR,0.00,0.00,VWS V14.01,2013-05-20 05:11:00,
2013-05-19 22:16:00,58.6,21.9,30.05,NE,36,9.0,12.0,24,0.00,,CLR,0.00,0.00,VWS V14.01,2013-05-20 05:16:00,
2013-05-19 22:21:00,58.5,21.9,30.05,NNE,33,10.0,11.0,24,0.00,,CLR,0.00,0.00,VWS V14.01,2013-05-20 05:21:00,
2013-05-19 22:26:00,58.4,21.8,30.06,NE,39,6.0,10.0,24,0.00,,CLR,0.00,0.00,VWS V14.01,2013-05-20 05:26:00,
2013-05-19 22:31:00,58.1,21.5,30.06,NNE,31,6.0,13.0,24,0.00,,CLR,0.00,0.00,VWS V14.01,2013-05-20 05:31:00,
2013-05-19 22:36:00,58.1,21.5,30.06,NE,44,8.0,9.0,24,0.00,,CLR,0.00,0.00,VWS V14.01,2013-05-20 05:36:00,
2013-05-19 22:41:00,57.8,22.2,30.06,NE,51,8.0,11.0,25,0.00,,CLR,0.00,0.00,VWS V14.01,2013-05-20 05:41:00,
2013-05-19 22:46:00,57.6,22.1,30.06,NNE,15,7.0,12.0,25,0.00,,CLR,0.00,0.00,VWS V14.01,2013-05-20 05:46:00,
2013-05-19 22:51:00,57.5,22.0,30.06,NNE,17,8.0,13.0,25,0.00,,CLR,0.00,0.00,VWS V14.01,2013-05-20 05:51:00,
2013-05-19 22:56:00,57.5,22.9,30.06,NNE,32,7.0,12.0,26,0.00,,CLR,0.00,0.00,VWS V14.01,2013-05-20 05:56:00,
2013-05-19 23:01:00,57.5,22.9,30.06,NNE,22,8.0,13.0,26,0.00,,CLR,0.00,0.00,VWS V14.01,2013-05-20 06:01:00,
2013-05-19 23:06:00,57.4,22.8,30.06,NNE,22,6.0,10.0,26,0.00,,CLR,0.00,0.00,VWS V14.01,2013-05-20 06:06:00,
2013-05-19 23:11:00,57.3,23.6,30.06,NE,44,10.0,14.0,27,0.00,,CLR,0.00,0.00,VWS V14.01,2013-05-20 06:11:00,
2013-05-19 23:16:00,57.0,23.4,30.06,NNE,24,6.0,10.0,27,0.00,,CLR,0.00,0.00,VWS V14.01,2013-05-20 06:16:00,
2013-05-19 23:21:00,56.8,24.1,30.06,NE,40,10.0,14.0,28,0.00,,CLR,0.00,0.00,VWS V14.01,2013-05-20 06:21:00,
2013-05-19 23:26:00,56.7,24.0,30.06,NNE,23,6.0,10.0,28,0.00,,CLR,0.00,0.00,VWS V14.01,2013-05-20 06:26:00,
2013-05-19 23:31:00,56.6,23.9,30.07,ENE,65,3.0,10.0,28,0.00,,CLR,0.00,0.00,VWS V14.01,2013-05-20 06:31:00,
2013-05-19 23:36:00,56.2,22.7,30.07,ENE,65,4.0,5.0,27,0.00,,CLR,0.00,0.00,VWS V14.01,2013-05-20 06:36:00,
2013-05-19 23:41:00,55.2,22.7,30.07,ENE,75,1.0,7.0,28,0.00,,CLR,0.00,0.00,VWS V14.01,2013-05-20 06:41:00,
2013-05-19 23:46:00,54.8,23.2,30.07,NE,38,4.0,7.0,29,0.00,,CLR,0.00,0.00,VWS V14.01,2013-05-20 06:46:00,
2013-05-19 23:51:00,54.4,22.8,30.08,NE,45,3.0,3.0,29,0.00,,CLR,0.00,0.00,VWS V14.01,2013-05-20 06:51:00,
2013-05-19 23:56:00,53.8,23.1,30.08,NE,44,4.0,4.0,30,0.00,,CLR,0.00,0.00,VWS V14.01,2013-05-20 06:56:00,